Location: Ligni�res
(47.3586°N, 4.5018°E)
Time: 09:41:17
(UTC+00:00)

Daily predictions for brighter satellites

Satellite Brightness Start Highest point End
(mag) Time Altitude Azimuth Time Altitude Azimuth Time Altitude Azimuth
STARLINK-1096 3.9 20:05:07 10° WNW 20:09:12 61° SW 20:13:16 10° SE
Okean 3 3.5 20:05:09 10° S 20:09:25 75° E 20:13:45 10° NNE
Cosmos 2369 Rocket 4.1 20:09:29 10° ESE 20:10:40 11° E 20:11:50 10° E
STARLINK-1104 4.2 20:07:21 10° WNW 20:11:26 55° NNE 20:15:30 10° E
STARLINK-1230 3.6 20:08:04 10° WSW 20:12:13 87° SSE 20:16:23 10° ENE
STARLINK-1079 4.0 20:10:06 10° WNW 20:14:10 56° SW 20:18:13 10° SE
STARLINK-1144 4.1 20:12:20 10° WNW 20:16:26 57° NNE 20:20:31 10° E
SL-4 R/B 2.6 20:14:17 10° NW 20:17:05 32° WSW 20:19:40 10° S
STARLINK-1243 3.7 20:13:04 10° WSW 20:17:13 88° NNW 20:21:23 10° ENE
Cosmos 2221 Rocket 3.6 20:12:47 10° S 20:17:18 83° E 20:21:53 10° N
STARLINK-1116 4.1 20:15:05 10° WNW 20:19:08 52° SW 20:23:09 10° SE
SPOT 5 4.3 20:14:54 10° ESE 20:19:22 29° ENE 20:23:55 10° N
NOSS 8 (F) 4.2 20:17:14 10° SSW 20:20:27 54° SE 20:23:25 10° NE
Meteor 1-13 Rocket 4.3 20:15:23 10° S 20:20:56 67° E 20:26:40 10° NNE
STARLINK-1103 4.1 20:17:18 10° WNW 20:21:25 60° NNE 20:25:31 10° ESE
STARLINK-1236 3.7 20:18:02 10° WSW 20:22:11 83° NNW 20:26:21 10° ENE
ERS-1 Rocket 3.9 20:19:58 10° SE 20:24:28 34° ENE 20:29:00 10° N
STARLINK-1101 4.0 20:22:16 10° WNW 20:26:24 63° NNE 20:30:31 10° ESE
STARLINK-1094 4.3 20:25:05 10° WNW 20:29:03 44° SW 20:32:47 11° SSE
USA 245 2.7 20:27:56 11° SSE 20:30:44 50° ENE 20:33:12 10° N
USA 238 DEB 4.5 20:23:53 10° NW 20:30:48 50° NE 20:37:58 10° ESE
USA 238 4.5 20:23:59 10° NW 20:30:54 50° NE 20:38:04 10° ESE
STARLINK-1102 3.9 20:27:16 10° WNW 20:31:24 66° NNE 20:35:32 10° ESE
STARLINK-1269 3.9 20:28:01 10° WSW 20:32:09 74° NNW 20:36:19 10° ENE
Cosmos 2278 Rocket 3.1 20:27:44 10° SW 20:33:17 55° WNW 20:38:54 10° NNE
TSX-5 4.4 20:27:53 10° SSW 20:33:30 61° ESE 20:37:50 10° NE
Okean 1 Rocket 3.6 20:29:42 10° N 20:34:00 44° ENE 20:37:54 12° SSE
STARLINK-1117 4.4 20:30:05 10° WNW 20:34:00 41° SW 20:37:34 12° SSE
Resurs 01 Rocket 2.3 20:29:54 10° S 20:34:15 54° W 20:38:39 10° NNW
Cosmos 1741 Rocket 4.0 20:29:19 10° NNW 20:34:34 88° WSW 20:39:47 10° SSE
Okean 2 Rocket 3.6 20:30:23 10° NNW 20:34:44 59° W 20:39:03 10° S
Nadezhda 4 Rocket 4.4 20:29:23 10° SSE 20:35:10 45° E 20:40:57 10° NNE
STARLINK-1111 3.8 20:32:14 10° WNW 20:36:23 70° NNE 20:40:31 10° ESE
STARLINK-1200 4.0 20:32:59 10° WSW 20:37:07 70° NNW 20:41:16 10° ENE
MetOp-B 4.2 20:32:45 10° SSE 20:38:06 85° WSW 20:43:30 10° NNW
SL-8 R/B 3.7 20:36:33 10° WNW 20:41:23 83° SSW 20:46:13 10° ESE
STARLINK-1073 3.8 20:37:13 10° WNW 20:41:23 74° NNE 20:45:21 11° ESE
STARLINK-1192 4.1 20:38:00 10° WSW 20:42:08 67° NNW 20:46:16 10° ENE
Cosmos 2279 Rocket 4.2 20:36:32 10° NNW 20:42:46 75° W 20:48:56 10° S
Cosmos 1850 Rocket 4.3 20:38:47 10° NNW 20:44:08 72° WSW 20:49:24 10° SSE
Cosmos 371 Rocket 3.8 20:40:25 10° SSW 20:45:14 64° WNW 20:50:06 10° NNE
ATLAS 3B CENTAUR R/B 4.3 20:35:15 10° SW 20:45:43 23° S 20:50:57 13° SE
STARLINK-1121 3.7 20:42:12 10° WNW 20:46:22 78° NNE 20:50:08 12° ESE
SL-4 R/B 3.7 20:43:26 10° S 20:46:42 19° SE 20:50:01 10° E
STARLINK-1244 4.1 20:42:59 10° WSW 20:47:06 63° NNW 20:51:14 10° ENE
Cosmos 1110 Rocket 4.2 20:42:22 10° S 20:47:23 52° ESE 20:52:24 10° NNE
Terra 2.8 20:44:22 13° SE 20:48:08 34° ENE 20:52:24 10° N
Spot 2 Rocket 3.6 20:44:12 10° SSE 20:49:15 82° WSW 20:54:20 10° NNW
Cosmos 2151 Rocket 4.1 20:45:01 10° NNW 20:49:29 61° W 20:53:57 10° S
Abrixas rocket 2.1 20:47:00 10° W 20:49:53 54° SSW 20:51:50 18° SE
SPOT 1/Viking Rocket 3.6 20:45:17 12° SSE 20:50:07 75° ENE 20:55:17 10° N
CARTOSAT-1 4.0 20:47:49 14° SE 20:51:17 49° ENE 20:55:28 10° N
STARLINK-1106 3.6 20:47:12 10° WNW 20:51:22 83° NNE 20:54:56 14° ESE
NOSS 8 (H) 4.0 20:48:26 10° SSW 20:51:36 68° SE 20:54:38 10° NE
STARLINK-1138 4.2 20:48:00 10° WSW 20:52:06 60° NNW 20:56:13 10° ENE
STARLINK-1112 3.6 20:52:09 10° WNW 20:56:18 87° NNE 20:59:42 15° ESE
STARLINK-1143 4.3 20:52:59 10° W 20:57:04 57° NNW 21:01:11 10° ENE
Aureole 2 4.0 20:55:31 10° NNW 20:58:40 81° WSW 21:00:36 19° SSE
STARLINK-1128 3.6 20:57:07 10° WNW 21:01:18 87° SSW 21:04:28 17° ESE
STARLINK-1241 4.4 20:58:02 10° W 21:02:06 55° NNW 21:06:12 10° ENE
Cosmos 1331 Rocket 4.0 20:59:03 10° S 21:04:08 65° ESE 21:09:18 10° NNE
deb Kosmos-1763 4.2 21:00:48 10° NNW 21:04:22 64° WSW 21:06:57 17° S
Aureole 2 Rocket 2.4 21:01:53 10° SSW 21:04:58 66° WNW 21:07:56 10° NNE
STARLINK-1113 3.6 21:02:07 10° WNW 21:06:16 82° SSW 21:09:16 18° SE
Cosmos 1733 3.9 21:03:48 10° N 21:07:23 38° ENE 21:09:32 20° SE
Cosmos 1437 Rocket 3.6 21:06:14 10° SSW 21:09:53 48° WNW 21:13:38 10° N
STARLINK-1119 3.6 21:07:07 10° WNW 21:11:16 77° SSW 21:14:03 20° SE
Cosmos 1378 3.1 21:09:41 17° S 21:12:24 63° E 21:16:05 10° NNE
Cosmos 1302 Rocket 4.4 21:10:14 15° S 21:14:19 43° ESE 21:19:19 10° NE
ISS -1.4 21:14:03 10° WSW 21:15:43 13° SW 21:17:02 11° SSW
STARLINK-1114 3.6 21:12:05 10° WNW 21:16:13 72° SSW 21:18:49 22° SE
USA 215 4.4 21:10:20 10° E 21:16:25 42° NNE 21:22:29 10° NW
Cosmos 1242 Rocket 4.1 21:15:26 18° ESE 21:16:26 20° E 21:19:12 10° NE
Cosmos 304 Rocket 4.1 21:11:52 10° SSW 21:16:37 67° WNW 21:21:25 10° NNE
Lacrosse 5 3.7 21:15:01 10° WNW 21:18:39 20° WSW 21:22:07 11° SSW
Cosmos 1092 Rocket 4.0 21:15:31 15° S 21:20:37 63° E 21:26:42 10° NNE
STARLINK-1130 (DARKSAT) 3.6 21:17:05 10° WNW 21:21:12 67° SSW 21:23:36 24° SE
NOSS 2-2 (D) 3.0 21:17:50 10° SW 21:21:24 83° SE 21:25:24 10° NE
CENTAUR R/B 3.5 21:15:40 10° NW 21:23:28 60° NE 21:31:08 14° ESE
STARLINK-1084 3.7 21:22:04 10° WNW 21:26:10 62° SW 21:28:23 25° SE
ATLAS 3B R/B 3.9 21:20:19 10° NNW 21:26:28 35° NNE 21:32:45 10° E
SL-27 R/B 3.0 21:24:21 10° N 21:27:51 47° ENE 21:29:28 26° SE
Cosmos 1378 Rocket 4.2 21:23:36 10° SSW 21:27:54 54° WNW 21:32:14 10° N
NOSS 3-2 (C) 4.3 21:21:23 10° NW 21:28:47 68° NE 21:35:36 16° SE
Cosmos 1766 3.3 21:26:27 10° N 21:30:28 87° WSW 21:32:47 24° S
STARLINK-1098 3.8 21:27:04 10° WNW 21:31:08 58° SW 21:33:10 27° SSE
Cosmos 1726 4.5 21:29:34 10° NE 21:31:18 13° ENE 21:32:50 10° E
STARLINK-1123 3.9 21:32:02 10° WNW 21:36:05 54° SW 21:37:56 29° SSE
Cosmos 1943 Rocket 2.1 21:31:55 10° SSW 21:37:25 72° ESE 21:43:01 10° NNE
Cosmos 2297 4.4 21:32:04 10° SW 21:37:40 58° WNW 21:43:20 10° NNE
NOSS 2-2 (E) 3.9 21:35:13 10° SW 21:38:45 55° NW 21:42:53 10° NE
NOSS 3-4 (A) 4.2 21:36:32 22° SSE 21:38:58 30° ESE 21:44:15 10° NE
NOSS 3-4 (C) 4.2 21:36:40 22° SSE 21:39:04 30° ESE 21:44:21 10° NE
STARLINK-1097 4.0 21:37:04 10° WNW 21:41:05 49° SW 21:42:45 30° SSE
Cosmos 2082 Rocket 4.2 21:38:44 10° NW 21:42:48 20° W 21:46:50 10° SW
SeaSat 1 3.6 21:39:36 10° NE 21:43:33 24° ESE 21:44:34 22° SE
STARLINK-1099 4.1 21:42:03 10° WNW 21:46:02 46° SW 21:47:31 31° SSE
Cosmos 1975 Rocket 3.0 21:44:36 23° S 21:47:22 86° ESE 21:51:49 10° N
STARLINK-1212 4.0 21:45:45 10° NW 21:48:44 41° NNE 21:50:47 17° E
STARLINK-1105 4.0 21:46:14 10° NW 21:49:12 42° NNE 21:51:13 18° E
STARLINK-1247 4.0 21:47:06 10° NW 21:50:06 42° NNE 21:52:07 18° E
STARLINK-1227 4.0 21:47:36 10° NW 21:50:35 42° NNE 21:52:32 18° E
BREEZE-M DEB (TANK) 3.7 21:34:37 10° WSW 21:50:49 85° SSE 21:54:50 10° ENE
Cosmos 292 Rocket 4.0 21:48:20 26° S 21:50:50 54° ESE 21:55:35 10° NNE
STARLINK-1104 4.2 21:47:03 10° WNW 21:50:59 42° SW 21:52:18 32° S
STARLINK-1226 3.9 21:48:27 10° NW 21:51:27 43° NNE 21:53:23 19° E
BREEZE-M DEB (TANK) 3.3 21:47:43 10° W 21:51:51 65° N 21:55:31 10° E
STARLINK-1215 3.9 21:49:21 10° NW 21:52:21 43° NNE 21:54:16 19° E
Cosmos 2369 Rocket 2.1 21:49:04 16° SSW 21:53:37 70° ESE 21:59:15 10° NNE
STARLINK-1217 3.9 21:51:09 10° NW 21:54:10 44° NNE 21:56:01 20° E
STARLINK-1229 3.9 21:52:04 10° NW 21:55:05 45° NNE 21:56:54 20° E
STARLINK-1144 4.3 21:52:04 10° WNW 21:55:57 39° SW 21:57:05 32° S
STARLINK-1270 3.8 21:52:58 10° NW 21:55:59 45° NNE 21:57:46 21° E
SPOT 5 3.8 21:53:31 18° SSW 21:57:10 46° W 22:02:21 10° NNW
STARLINK-1189 3.8 21:54:45 10° NW 21:57:47 46° NNE 21:59:29 22° E
Aureole 3 Rocket 4.4 21:52:15 10° N 21:58:28 74° E 22:03:54 24° SSE
STARLINK-1188 3.8 21:55:40 10° NW 21:58:42 46° NNE 22:00:22 22° E
ATLAS CENTAUR R/B 2.6 21:59:35 25° ESE 21:59:35 25° ESE 22:02:54 10° ENE
STARLINK-1187 3.6 21:56:45 10° WNW 21:59:48 50° NNE 22:01:14 26° E
STARLINK-1103 4.4 21:57:04 10° WNW 22:00:53 36° SW 22:01:51 31° S
Cosmos 1340 Rocket 4.3 21:57:35 10° NNE 22:01:02 26° ENE 22:02:31 21° ESE
STARLINK-1191 3.7 21:58:06 10° NW 22:01:08 48° NNE 22:02:40 24° E
STARLINK-1221 3.7 21:59:03 10° NW 22:02:05 48° NNE 22:03:34 25° E
STARLINK-1222 3.7 21:59:54 10° NW 22:02:56 49° NNE 22:04:24 25° E
ERS-1 Rocket 4.2 21:59:40 15° SSW 22:03:14 34° W 22:07:50 10° NNW
STARLINK-1214 3.6 22:00:48 10° NW 22:03:50 49° NNE 22:05:16 26° E
Cosmos 1025 Rocket 3.5 22:02:58 33° SE 22:04:17 44° E 22:08:23 10° NNE
Okean 2 4.0 22:02:00 19° SSW 22:04:46 54° WNW 22:08:53 10° N
EXPRESS MD2 4.1 22:01:05 10° W 22:04:52 76° N 22:12:44 10° ENE
Thor Agena Rocket 3.9 21:59:47 10° NNE 22:04:56 49° E 22:07:12 30° SSE
Cosmos 2026 Rocket 4.0 22:00:23 19° S 22:05:04 84° W 22:11:29 10° N
STARLINK-1101 4.5 22:02:05 10° WNW 22:05:50 33° SW 22:06:38 31° SSW
ATLAS 2AS CENTAUR R/B 3.2 22:00:30 16° SSW 22:06:55 55° ESE 22:14:37 10° NE
Cosmos 1656 Rocket 4.0 22:04:50 29° SSE 22:07:19 47° ESE 22:12:38 10° NE
BREEZE M DEB (TANK) 2.2 22:03:45 10° W 22:07:19 66° NNW 22:08:33 22° ENE
Cosmos 1553 Rocket 4.0 22:01:59 10° N 22:08:17 75° E 22:11:43 28° SSE
BREEZE-M DEB (TANK) 4.1 21:54:44 10° WNW 22:09:14 80° SSW 22:11:56 25° ESE
Cosmos 1953 3.3 22:05:47 10° N 22:09:30 36° ENE 22:10:41 29° ESE
STARLINK-1228 3.3 22:06:14 10° WNW 22:09:43 69° NNE 22:11:08 33° E
NOSS 3-2 (A) 4.3 22:02:41 10° NW 22:10:06 61° WSW 22:15:11 25° SSE
Cosmos 1470 2.6 22:06:46 10° N 22:10:39 83° E 22:11:51 43° SSE
APEX 4.2 22:06:47 18° SSW 22:11:46 73° ESE 22:17:07 10° NNE
STARLINK-1235 3.2 22:08:57 10° WNW 22:12:11 67° NNE 22:13:12 39° E
Cosmos 968 Rocket 3.4 22:10:01 10° NNW 22:15:13 87° WSW 22:17:31 34° SSE
Cosmos 1455 Rocket 3.5 22:13:17 10° NNW 22:17:31 53° W 22:19:25 29° SSW
Cosmos 1655 Rocket 4.2 22:15:02 29° SSE 22:18:09 57° E 22:24:17 10° NNE
SL-4 R/B 3.2 22:20:18 14° NE 22:20:18 14° NE 22:21:10 10° NNE
ATLAS 5 CENTAUR R/B 1.9 22:21:46 45° SE 22:21:47 45° SE 22:24:11 10° ENE
USA 238 DEB 4.3 22:14:57 10° NW 22:21:53 51° WSW 22:25:51 26° S
USA 238 4.3 22:15:03 10° NW 22:22:00 51° WSW 22:25:58 26° S
Cosmos 1758 3.3 22:20:05 10° N 22:24:10 81° W 22:25:25 43° S
SL-4 R/B 2.3 22:21:03 10° SW 22:25:49 70° SSE 22:30:39 10° ENE
Terra 3.1 22:23:15 19° SW 22:25:52 32° W 22:30:08 10° NNW
Cosmos 1842 4.4 22:24:08 20° SW 22:26:21 39° WNW 22:30:02 10° N
STARLINK-1234 2.8 22:26:42 10° WNW 22:29:59 89° SSW 22:30:16 72° ESE
In-Cosmos 22 4.4 22:30:04 33° SE 22:31:58 49° E 22:37:03 10° NNE
STARLINK-1233 4.5 22:31:17 10° WNW 22:35:20 49° NNE 22:39:12 11° E
Cosmos 1503 Rocket 4.0 22:30:01 10° NNW 22:35:22 82° WSW 22:37:35 37° SSE
STARLINK-1209 2.8 22:32:52 10° WNW 22:36:10 77° SSW 22:36:13 77° SSW
Cosmos 2266 Rocket 4.1 22:33:43 32° SSE 22:36:26 57° E 22:42:20 10° NNE
STARLINK-1204 4.4 22:36:16 10° WNW 22:40:20 51° NNE 22:43:59 12° E
Meteor 2-8 Rocket 4.4 22:34:57 10° N 22:41:08 85° W 22:44:07 33° S
SJ 16-02 4.2 22:42:21 10° NE 22:42:46 10° NE 22:43:12 10° NE
Cosmos 2263 4.4 22:39:18 18° SW 22:43:32 70° WNW 22:49:10 10° NNE
STARLINK-1238 4.3 22:41:17 10° WNW 22:45:21 53° NNE 22:48:47 14° E
Cosmos 1536 Rocket 3.6 22:45:43 40° SSW 22:47:13 75° W 22:51:36 10° N
Cosmos 1674 3.4 22:48:20 36° ESE 22:48:36 36° E 22:52:06 10° NNE
STARLINK-1201 4.2 22:46:15 10° WNW 22:50:21 55° NNE 22:53:33 16° E
Cosmos 1271 Rocket 3.5 22:49:29 30° SW 22:50:56 45° WNW 22:54:45 10° N
Cosmos 1242 Rocket 4.2 22:49:25 20° WSW 22:51:07 30° WNW 22:54:25 10° N
STARLINK-60 3.4 22:52:21 18° W 22:54:33 59° NNW 22:57:43 10° ENE
Cosmos 1354 Rocket 4.2 22:49:24 10° NNW 22:54:40 64° WSW 22:56:35 38° S
Spot 4 4.0 22:53:29 39° SSW 22:55:11 63° W 23:00:00 10° NNW
STARLINK-1206 4.2 22:51:15 10° WNW 22:55:21 58° NNE 22:58:21 18° E
COSMOS 2455 2.8 22:52:50 32° SSW 22:55:42 70° ESE 23:01:43 10° NE
Cosmos 883 Rocket 4.4 22:50:02 10° N 22:56:12 78° E 22:58:57 35° SSE
USA 215 3.4 22:52:56 13° ESE 22:58:59 78° NNE 23:05:33 10° NW
STARLINK-1205 4.1 22:56:13 10° WNW 23:00:20 61° NNE 23:03:07 20° E
Cosmos 1707 3.6 22:59:44 32° WSW 23:00:59 44° WNW 23:04:44 10° N
Cosmos 2297 Rocket 3.9 22:57:02 10° N 23:01:49 27° NE 23:06:35 10° ESE
Helios 1A 3.7 23:01:35 35° ESE 23:02:50 46° ENE 23:06:51 10° N
Lacrosse 4 Rocket 4.4 23:03:15 10° N 23:05:02 12° NNE 23:06:46 10° ENE
STARLINK-1218 4.0 23:01:13 10° WNW 23:05:20 64° NNE 23:07:55 22° E
Cosmos 1174 3.2 23:06:36 78° SW 23:06:48 86° NW 23:10:34 10° NE
Cosmos 1726 2.4 23:03:12 10° NNW 23:06:52 54° W 23:07:20 50° SW
ALOS 2 2.5 23:07:47 50° S 23:08:55 86° W 23:13:20 10° NNW
Timation 2 Rocket 4.1 23:03:12 10° NNW 23:09:31 67° ENE 23:12:55 27° SE
STARLINK-1254 3.9 23:06:11 10° WNW 23:10:19 67° NNE 23:12:41 24° ESE
Cosmos 2058 Rocket 4.1 23:06:23 10° N 23:10:30 36° ENE 23:11:58 28° ESE
COSMOS 2487 2.7 23:07:09 10° NNW 23:10:33 54° WSW 23:10:33 54° WSW
CENTAUR R/B 3.6 23:06:35 10° NW 23:14:16 47° WSW 23:18:17 29° S
STARLINK-1231 3.8 23:11:09 10° WNW 23:15:18 71° NNE 23:17:27 27° ESE
Meteor 1-16 Rocket 4.3 23:10:24 10° NNW 23:15:51 64° W 23:17:49 38° SSW
Meteor 2-5 Rocket 4.0 23:14:12 36° SSE 23:16:06 53° E 23:21:35 10° NNE
Cosmos 1867 4.0 23:12:11 10° NW 23:17:22 45° WSW 23:18:45 37° SSW
ATLAS 3B R/B 2.7 23:10:56 10° NW 23:17:43 74° SW 23:21:09 32° SSE
SL-14 R/B 4.4 23:19:11 29° ESE 23:19:31 30° E 23:22:55 10° NNE
FALCON 9 DEB 3.4 23:20:07 57° E 23:20:07 57° E 23:23:00 10° ENE
STARLINK-1232 3.7 23:16:09 10° WNW 23:20:18 75° NNE 23:22:15 30° ESE
Cosmos 1606 Rocket 3.4 23:16:17 10° N 23:20:39 86° E 23:21:36 54° SSE
SeaSat 1 2.9 23:16:31 10° NNE 23:21:22 57° NW 23:24:20 23° SW
Cosmos 1943 Rocket 4.3 23:17:19 10° W 23:21:46 24° NW 23:26:15 10° N
Cosmos 2098 Rocket 4.3 23:20:08 33° S 23:23:45 87° E 23:31:17 10° N
STARLINK-29 3.3 23:24:02 56° WNW 23:24:26 64° NNW 23:27:37 10° ENE
STARLINK-1208 3.6 23:21:06 10° WNW 23:25:15 79° NNE 23:27:00 34° ESE
STARLINK-1362 4.4 23:26:40 32° E 23:26:40 32° E 23:29:09 10° ENE
ATLAS CENTAUR R/B 3.0 23:25:52 10° NNW 23:27:48 26° NE 23:30:56 10° E
STARLINK-1373 4.3 23:30:05 36° E 23:30:05 36° E 23:32:45 10° ENE
NOSS 3-4 (A) 3.9 23:23:53 12° WSW 23:29:24 61° NW 23:35:47 10° NE
NOSS 3-4 (C) 3.9 23:24:02 12° SW 23:29:30 61° NW 23:35:54 10° NE
STARLINK-1271 3.6 23:26:07 10° WNW 23:30:17 84° NNE 23:31:48 38° ESE
STARLINK-1365 4.1 23:31:11 39° ESE 23:31:11 39° ESE 23:34:02 10° ENE
RESURS DK-1 2.3 23:29:48 61° SSE 23:30:21 72° ESE 23:34:30 10° NNE
STARLINK-1390 4.1 23:33:34 39° ESE 23:33:34 39° ESE 23:36:23 10° ENE
Cosmos 2084 3.5 23:33:36 55° S 23:34:19 65° SE 23:38:45 10° NE
Cosmos 2315 Rocket 4.0 23:28:11 10° NNW 23:34:22 69° W 23:36:59 36° SSW
STARLINK-1154 3.5 23:31:05 10° WNW 23:35:15 89° NNE 23:36:36 42° ESE
BREEZE-M R/B 3.8 23:31:45 25° SW 23:35:35 49° SSE 23:39:31 10° ENE
Cosmos 1626 2.5 23:36:00 47° ESE 23:36:14 48° E 23:39:50 10° NNE
Cosmos 1340 Rocket 4.1 23:33:56 10° NNW 23:37:27 29° W 23:38:06 27° WSW
Cosmos 2369 Rocket 4.2 23:33:36 10° W 23:38:11 25° NW 23:42:47 10° N
ATLAS CENTAUR R/B 2.3 23:35:43 22° WSW 23:38:12 45° NW 23:42:09 10° NNE
Okean 1-7 Rocket 3.8 23:37:39 47° SSE 23:38:39 61° E 23:43:08 10° NNE
Cosmos 2227 Rocket 3.3 23:33:38 10° NNW 23:38:59 41° NE 23:43:29 14° ESE
STARLINK-1197 3.5 23:36:02 10° WNW 23:40:13 86° SSW 23:41:20 47° SE
Cosmos 1908 3.6 23:38:27 10° NNW 23:42:09 47° W 23:42:29 45° WSW
Nadezhda 2 Rocket 4.4 23:39:44 38° S 23:42:17 82° E 23:48:27 10° N
CZ-4 R/B 4.4 23:38:06 10° NNE 23:42:40 43° E 23:43:50 36° SE
Aureole 3 4.4 23:42:08 10° NNW 23:44:31 24° W 23:44:31 24° W
STARLINK-1198 3.4 23:41:01 10° WNW 23:45:11 81° SSW 23:46:08 52° SE
Cosmos 1953 4.1 23:42:44 10° NW 23:45:39 20° W 23:46:22 19° WSW
STARLINK-1199 3.4 23:46:02 10° WNW 23:50:11 76° SSW 23:50:56 57° SE
Landsat 4 3.5 23:46:51 10° NNE 23:50:35 84° WNW 23:51:00 69° SSW
STARLINK-1210 3.5 23:51:00 10° WNW 23:55:08 71° SSW 23:55:42 61° SSE
